START_TIME,STEP,MOV.,P1,t_acc.,E44,t_acc.,A3,t_acc.,P10,t_acc.
1989-08-27T06:00:23.810 ,3,0,0.,1.2,0.,1.2,0.,1.2,0.,1.2
1989-08-27T06:00:25.010 ,3,0,1.,1.2,0.,1.2,0.,1.2,0.,1.2
1989-08-27T06:00:26.210 ,3,0,0.,1.2,0.,1.2,0.,1.2,0.,1.2
1989-08-27T06:00:27.410 ,3,0,1.,1.2,0.,1.2,0.,1.2,0.,1.2
1989-08-27T06:00:28.610 ,3,0,1.,1.2,0.,1.2,0.,1.2,0.,1.2
1989-08-27T06:00:29.810 ,3,0,0.,1.2,0.,1.2,0.,1.2,0.,1.2
1989-08-27T06:00:31.010 ,3,0,0.,1.2,0.,1.2,0.,1.2,0.,1.2
1989-08-27T06:00:32.210 ,3,0,0.,1.2,0.,1.2,0.,1.2,0.,1.2
1989-08-27T06:00:33.410 ,3,0,0.,1.2,0.,1.2,0.,1.2,0.,1.2
1989-08-27T06:00:34.610 ,3,0,0.,1.2,0.,1.2,0.,1.2,0.,1.2
1989-08-27T06:00:35.810 ,3,0,0.,1.2,0.,1.2,0.,1.2,0.,1.2
1989-08-27T06:00:37.010 ,3,0,0.,1.2,0.,1.2,0.,1.2,0.,1.2
1989-08-27T06:00:38.210 ,3,0,0.,1.2,0.,1.2,0.,1.2,0.,1.2
1989-08-27T06:00:39.410 ,3,0,0.,1.2,0.,1.2,0.,1.2,0.,1.2
1989-08-27T06:00:40.610 ,3,0,0.,1.2,0.,1.2,0.,1.2,0.,1.2
1989-08-27T06:00:41.810 ,3,0,0.,1.2,0.,1.2,0.,1.2,0.,1.2
1989-08-27T06:00:43.010 ,3,0,0.,1.2,0.,1.2,0.,1.2,0.,1.2
1989-08-27T06:00:44.210 ,3,0,0.,1.2,0.,1.2,0.,1.2,0.,1.2
1989-08-27T06:00:45.410 ,3,0,0.,1.2,0.,1.2,0.,1.2,0.,1.2
1989-08-27T06:00:46.610 ,3,0,0.,1.2,0.,1.2,0.,1.2,0.,1.2
1989-08-27T06:00:47.810 ,4,0,0.,1.2,0.,1.2,0.,1.2,0.,1.2
1989-08-27T06:00:49.010 ,4,0,0.,1.2,0.,1.2,0.,1.2,0.,1.2
1989-08-27T06:00:50.210 ,4,0,0.,1.2,0.,1.2,0.,1.2,0.,1.2
1989-08-27T06:00:51.410 ,4,0,0.,1.2,0.,1.2,0.,1.2,0.,1.2
1989-08-27T06:00:52.610 ,4,0,0.,1.2,0.,1.2,0.,1.2,0.,1.2
1989-08-27T06:00:53.810 ,4,0,0.,1.2,0.,1.2,0.,1.2,0.,1.2
1989-08-27T06:00:55.010 ,4,0,0.,1.2,0.,1.2,0.,1.2,0.,1.2
1989-08-27T06:00:56.210 ,4,0,0.,1.2,0.,1.2,0.,1.2,0.,1.2
1989-08-27T06:00:57.410 ,4,0,0.,1.2,0.,1.2,0.,1.2,0.,1.2
1989-08-27T06:00:58.610 ,4,0,0.,1.2,0.,1.2,0.,1.2,0.,1.2
1989-08-27T06:00:59.810 ,4,0,0.,1.2,0.,1.2,0.,1.2,0.,1.2
1989-08-27T06:01:01.010 ,4,0,0.,1.2,0.,1.2,0.,1.2,0.,1.2
1989-08-27T06:01:02.210 ,4,0,0.,1.2,0.,1.2,0.,1.2,0.,1.2
1989-08-27T06:01:03.410 ,4,0,0.,1.2,0.,1.2,0.,1.2,0.,1.2
1989-08-27T06:01:04.610 ,4,0,0.,1.2,0.,1.2,1.,1.2,0.,1.2
1989-08-27T06:01:05.810 ,4,0,0.,1.2,0.,1.2,0.,1.2,0.,1.2
1989-08-27T06:01:07.010 ,4,0,1.,1.2,0.,1.2,0.,1.2,0.,1.2
1989-08-27T06:01:08.210 ,4,0,0.,1.2,0.,1.2,0.,1.2,0.,1.2
1989-08-27T06:01:09.410 ,4,0,0.,1.2,0.,1.2,0.,1.2,0.,1.2
1989-08-27T06:01:10.610 ,4,0,0.,1.2,0.,1.2,0.,1.2,0.,1.2
1989-08-27T06:01:11.810 ,4,0,0.,1.2,0.,1.2,0.,1.2,0.,1.2
1989-08-27T06:01:13.010 ,4,0,0.,1.2,0.,1.2,0.,1.2,0.,1.2
1989-08-27T06:01:14.210 ,4,0,0.,1.2,0.,1.2,0.,1.2,0.,1.2
1989-08-27T06:01:15.410 ,4,0,0.,1.2,0.,1.2,0.,1.2,0.,1.2
1989-08-27T06:01:16.610 ,4,0,0.,1.2,0.,1.2,0.,1.2,0.,1.2
1989-08-27T06:01:17.810 ,4,0,0.,1.2,0.,1.2,0.,1.2,0.,1.2
1989-08-27T06:01:19.010 ,4,0,1.,1.2,0.,1.2,0.,1.2,0.,1.2
1989-08-27T06:01:20.210 ,4,0,0.,1.2,0.,1.2,0.,1.2,0.,1.2
1989-08-27T06:01:21.410 ,4,0,0.,1.2,0.,1.2,0.,1.2,0.,1.2
1989-08-27T06:01:22.610 ,4,0,0.,1.2,0.,1.2,0.,1.2,0.,1.2
1989-08-27T06:01:23.810 ,4,0,0.,1.2,0.,1.2,0.,1.2,0.,1.2
1989-08-27T06:01:25.010 ,4,0,0.,1.2,0.,1.2,0.,1.2,0.,1.2
1989-08-27T06:01:26.210 ,4,0,0.,1.2,0.,1.2,0.,1.2,0.,1.2
1989-08-27T06:01:27.410 ,4,0,0.,1.2,0.,1.2,0.,1.2,0.,1.2
1989-08-27T06:01:28.610 ,4,0,0.,1.2,0.,1.2,0.,1.2,0.,1.2
1989-08-27T06:01:29.810 ,4,0,1.,1.2,0.,1.2,0.,1.2,0.,1.2
1989-08-27T06:01:31.010 ,4,0,0.,1.2,0.,1.2,0.,1.2,0.,1.2
1989-08-27T06:01:32.210 ,4,0,0.,1.2,0.,1.2,0.,1.2,0.,1.2
1989-08-27T06:01:33.410 ,4,0,0.,1.2,0.,1.2,0.,1.2,0.,1.2
1989-08-27T06:01:34.610 ,4,0,0.,1.2,0.,1.2,0.,1.2,0.,1.2
1989-08-27T06:01:35.810 ,5,0,0.,1.2,0.,1.2,0.,1.2,0.,1.2
1989-08-27T06:01:37.010 ,5,0,0.,1.2,0.,1.2,0.,1.2,0.,1.2
1989-08-27T06:01:38.210 ,5,0,0.,1.2,0.,1.2,0.,1.2,0.,1.2
1989-08-27T06:01:39.410 ,5,0,0.,1.2,0.,1.2,0.,1.2,0.,1.2
1989-08-27T06:01:40.610 ,5,0,0.,1.2,0.,1.2,0.,1.2,0.,1.2
1989-08-27T06:01:41.810 ,5,0,0.,1.2,0.,1.2,0.,1.2,0.,1.2
1989-08-27T06:01:43.010 ,5,0,0.,1.2,0.,1.2,0.,1.2,0.,1.2
1989-08-27T06:01:44.210 ,5,0,0.,1.2,0.,1.2,0.,1.2,0.,1.2
1989-08-27T06:01:45.410 ,5,0,0.,1.2,0.,1.2,0.,1.2,0.,1.2
1989-08-27T06:01:46.610 ,5,0,0.,1.2,0.,1.2,0.,1.2,0.,1.2
1989-08-27T06:01:47.810 ,5,0,0.,1.2,0.,1.2,0.,1.2,0.,1.2
1989-08-27T06:01:49.010 ,5,0,0.,1.2,0.,1.2,0.,1.2,0.,1.2
1989-08-27T06:01:50.210 ,5,0,0.,1.2,0.,1.2,0.,1.2,0.,1.2
1989-08-27T06:01:51.410 ,5,0,0.,1.2,0.,1.2,0.,1.2,0.,1.2
1989-08-27T06:01:52.610 ,5,0,0.,1.2,0.,1.2,0.,1.2,0.,1.2
1989-08-27T06:01:53.810 ,5,0,0.,1.2,0.,1.2,0.,1.2,0.,1.2
1989-08-27T06:01:55.010 ,5,0,0.,1.2,0.,1.2,0.,1.2,0.,1.2
1989-08-27T06:01:56.210 ,5,0,0.,1.2,0.,1.2,0.,1.2,0.,1.2
1989-08-27T06:01:57.410 ,5,0,0.,1.2,0.,1.2,0.,1.2,0.,1.2
1989-08-27T06:01:58.610 ,5,0,0.,1.2,0.,1.2,0.,1.2,0.,1.2
1989-08-27T06:01:59.810 ,5,0,0.,1.2,0.,1.2,0.,1.2,0.,1.2
1989-08-27T06:02:01.010 ,5,0,0.,1.2,0.,1.2,0.,1.2,0.,1.2
1989-08-27T06:02:02.210 ,5,0,0.,1.2,0.,1.2,0.,1.2,0.,1.2
1989-08-27T06:02:03.410 ,5,0,0.,1.2,0.,1.2,0.,1.2,0.,1.2
1989-08-27T06:02:04.610 ,5,0,0.,1.2,0.,1.2,0.,1.2,0.,1.2
1989-08-27T06:02:05.810 ,5,0,0.,1.2,0.,1.2,0.,1.2,0.,1.2
1989-08-27T06:02:07.010 ,5,0,0.,1.2,0.,1.2,0.,1.2,0.,1.2
1989-08-27T06:02:08.210 ,5,0,0.,1.2,0.,1.2,0.,1.2,0.,1.2
1989-08-27T06:02:09.410 ,5,0,0.,1.2,0.,1.2,0.,1.2,0.,1.2
1989-08-27T06:02:10.610 ,5,0,0.,1.2,0.,1.2,0.,1.2,0.,1.2
1989-08-27T06:02:11.810 ,5,0,0.,1.2,0.,1.2,0.,1.2,0.,1.2
1989-08-27T06:02:13.010 ,5,0,0.,1.2,0.,1.2,0.,1.2,0.,1.2
1989-08-27T06:02:14.210 ,5,0,0.,1.2,0.,1.2,0.,1.2,0.,1.2
1989-08-27T06:02:15.410 ,5,0,0.,1.2,0.,1.2,0.,1.2,0.,1.2
1989-08-27T06:02:16.610 ,5,0,1.,1.2,0.,1.2,0.,1.2,0.,1.2
1989-08-27T06:02:17.810 ,5,0,0.,1.2,0.,1.2,0.,1.2,0.,1.2
1989-08-27T06:02:19.010 ,5,0,0.,1.2,0.,1.2,0.,1.2,0.,1.2
1989-08-27T06:02:20.210 ,5,0,0.,1.2,0.,1.2,0.,1.2,0.,1.2
1989-08-27T06:02:21.410 ,5,0,0.,1.2,0.,1.2,0.,1.2,0.,1.2
1989-08-27T06:02:22.610 ,5,0,0.,1.2,0.,1.2,0.,1.2,0.,1.2
1989-08-27T06:02:23.810 ,6,0,0.,1.2,0.,1.2,0.,1.2,0.,1.2
1989-08-27T06:02:25.010 ,6,0,0.,1.2,0.,1.2,0.,1.2,0.,1.2
1989-08-27T06:02:26.210 ,6,0,0.,1.2,0.,1.2,0.,1.2,0.,1.2
1989-08-27T06:02:27.410 ,6,0,0.,1.2,0.,1.2,0.,1.2,0.,1.2
1989-08-27T06:02:28.610 ,6,0,0.,1.2,0.,1.2,0.,1.2,0.,1.2
1989-08-27T06:02:29.810 ,6,0,0.,1.2,0.,1.2,0.,1.2,0.,1.2
1989-08-27T06:02:31.010 ,6,0,0.,1.2,0.,1.2,0.,1.2,0.,1.2
1989-08-27T06:02:32.210 ,6,0,0.,1.2,0.,1.2,0.,1.2,0.,1.2
1989-08-27T06:02:33.410 ,6,0,0.,1.2,0.,1.2,0.,1.2,0.,1.2
1989-08-27T06:02:34.610 ,6,0,0.,1.2,0.,1.2,0.,1.2,0.,1.2
1989-08-27T06:02:35.810 ,6,0,0.,1.2,0.,1.2,0.,1.2,0.,1.2
1989-08-27T06:02:37.010 ,6,0,0.,1.2,0.,1.2,0.,1.2,0.,1.2
1989-08-27T06:02:38.210 ,6,0,0.,1.2,0.,1.2,0.,1.2,0.,1.2
1989-08-27T06:02:39.410 ,6,0,0.,1.2,0.,1.2,0.,1.2,0.,1.2
1989-08-27T06:02:40.610 ,6,0,0.,1.2,0.,1.2,0.,1.2,0.,1.2
1989-08-27T06:02:41.810 ,6,0,0.,1.2,0.,1.2,0.,1.2,0.,1.2
1989-08-27T06:02:43.010 ,6,0,0.,1.2,0.,1.2,0.,1.2,0.,1.2
1989-08-27T06:02:44.210 ,6,0,0.,1.2,0.,1.2,0.,1.2,0.,1.2
1989-08-27T06:02:45.410 ,6,0,0.,1.2,0.,1.2,0.,1.2,0.,1.2
1989-08-27T06:02:46.610 ,6,0,0.,1.2,0.,1.2,0.,1.2,0.,1.2
1989-08-27T06:02:47.810 ,6,0,0.,1.2,0.,1.2,0.,1.2,0.,1.2
1989-08-27T06:02:49.010 ,6,0,0.,1.2,0.,1.2,0.,1.2,0.,1.2
1989-08-27T06:02:50.210 ,6,0,0.,1.2,0.,1.2,0.,1.2,0.,1.2
1989-08-27T06:02:51.410 ,6,0,0.,1.2,0.,1.2,0.,1.2,0.,1.2
1989-08-27T06:02:52.610 ,6,0,0.,1.2,0.,1.2,0.,1.2,0.,1.2
1989-08-27T06:02:53.810 ,6,0,0.,1.2,0.,1.2,0.,1.2,0.,1.2
1989-08-27T06:02:55.010 ,6,0,0.,1.2,0.,1.2,0.,1.2,0.,1.2
1989-08-27T06:02:56.210 ,6,0,0.,1.2,0.,1.2,0.,1.2,0.,1.2
1989-08-27T06:02:57.410 ,6,0,0.,1.2,0.,1.2,0.,1.2,0.,1.2
1989-08-27T06:02:58.610 ,6,0,0.,1.2,0.,1.2,0.,1.2,0.,1.2
1989-08-27T06:02:59.810 ,6,0,0.,1.2,0.,1.2,0.,1.2,0.,1.2
1989-08-27T06:03:01.010 ,6,0,0.,1.2,0.,1.2,0.,1.2,0.,1.2
1989-08-27T06:03:02.210 ,6,0,0.,1.2,0.,1.2,0.,1.2,0.,1.2
1989-08-27T06:03:03.410 ,6,0,0.,1.2,0.,1.2,0.,1.2,0.,1.2
1989-08-27T06:03:04.610 ,6,0,0.,1.2,0.,1.2,0.,1.2,0.,1.2
1989-08-27T06:03:05.810 ,6,0,0.,1.2,0.,1.2,0.,1.2,0.,1.2
1989-08-27T06:03:07.010 ,6,0,0.,1.2,0.,1.2,0.,1.2,0.,1.2
1989-08-27T06:03:08.210 ,6,0,0.,1.2,0.,1.2,0.,1.2,0.,1.2
1989-08-27T06:03:09.410 ,6,0,0.,1.2,0.,1.2,0.,1.2,0.,1.2
1989-08-27T06:03:10.610 ,6,0,0.,1.2,0.,1.2,0.,1.2,0.,1.2
1989-08-27T06:03:11.810 ,7,0,0.,1.2,0.,1.2,0.,1.2,0.,1.2
1989-08-27T06:03:13.010 ,7,0,0.,1.2,0.,1.2,0.,1.2,0.,1.2
1989-08-27T06:03:14.210 ,7,0,0.,1.2,0.,1.2,0.,1.2,0.,1.2
1989-08-27T06:03:15.410 ,7,0,0.,1.2,0.,1.2,0.,1.2,0.,1.2
1989-08-27T06:03:16.610 ,7,0,0.,1.2,0.,1.2,0.,1.2,0.,1.2
1989-08-27T06:03:17.810 ,7,0,0.,1.2,0.,1.2,4.,1.2,0.,1.2
1989-08-27T06:03:19.010 ,7,0,0.,1.2,0.,1.2,3.,1.2,0.,1.2
1989-08-27T06:03:20.210 ,7,0,0.,1.2,0.,1.2,4.,1.2,0.,1.2
1989-08-27T06:03:21.410 ,7,0,0.,1.2,0.,1.2,6.,1.2,0.,1.2
1989-08-27T06:03:22.610 ,7,0,0.,1.2,0.,1.2,6.,1.2,0.,1.2
1989-08-27T06:03:23.810 ,7,0,0.,1.2,0.,1.2,5.,1.2,0.,1.2
1989-08-27T06:03:25.010 ,7,0,0.,1.2,0.,1.2,3.,1.2,0.,1.2
1989-08-27T06:03:26.210 ,7,0,0.,1.2,0.,1.2,4.,1.2,0.,1.2
1989-08-27T06:03:27.410 ,7,0,0.,1.2,0.,1.2,2.,1.2,0.,1.2
1989-08-27T06:03:28.610 ,7,0,0.,1.2,0.,1.2,5.,1.2,0.,1.2
1989-08-27T06:03:29.810 ,7,0,0.,1.2,0.,1.2,9.,1.2,0.,1.2
1989-08-27T06:03:31.010 ,7,0,0.,1.2,0.,1.2,2.,1.2,0.,1.2
1989-08-27T06:03:32.210 ,7,0,0.,1.2,0.,1.2,10.,1.2,0.,1.2
1989-08-27T06:03:33.410 ,7,0,0.,1.2,0.,1.2,5.,1.2,0.,1.2
1989-08-27T06:03:34.610 ,7,0,0.,1.2,0.,1.2,6.,1.2,0.,1.2
1989-08-27T06:03:35.810 ,7,0,0.,1.2,0.,1.2,4.,1.2,0.,1.2
1989-08-27T06:03:37.010 ,7,0,0.,1.2,0.,1.2,4.,1.2,0.,1.2
1989-08-27T06:03:38.210 ,7,0,0.,1.2,0.,1.2,5.,1.2,0.,1.2
1989-08-27T06:03:39.410 ,7,0,0.,1.2,0.,1.2,7.,1.2,0.,1.2
1989-08-27T06:03:40.610 ,7,0,0.,1.2,0.,1.2,8.,1.2,0.,1.2
1989-08-27T06:03:41.810 ,7,0,0.,1.2,0.,1.2,4.,1.2,0.,1.2
1989-08-27T06:03:43.010 ,7,0,0.,1.2,0.,1.2,7.,1.2,0.,1.2
1989-08-27T06:03:44.210 ,7,0,0.,1.2,0.,1.2,6.,1.2,0.,1.2
1989-08-27T06:03:45.410 ,7,0,0.,1.2,0.,1.2,5.,1.2,0.,1.2
1989-08-27T06:03:46.610 ,7,0,0.,1.2,0.,1.2,4.,1.2,0.,1.2
1989-08-27T06:03:47.810 ,7,0,0.,1.2,0.,1.2,6.,1.2,0.,1.2
1989-08-27T06:03:49.010 ,7,0,0.,1.2,0.,1.2,2.,1.2,0.,1.2
1989-08-27T06:03:50.210 ,7,0,1.,1.2,0.,1.2,0.,1.2,0.,1.2
1989-08-27T06:03:51.410 ,7,0,0.,1.2,0.,1.2,5.,1.2,0.,1.2
1989-08-27T06:03:52.610 ,7,0,0.,1.2,0.,1.2,7.,1.2,0.,1.2
1989-08-27T06:03:53.810 ,7,0,0.,1.2,0.,1.2,5.,1.2,0.,1.2
1989-08-27T06:03:55.010 ,7,0,0.,1.2,0.,1.2,3.,1.2,0.,1.2
1989-08-27T06:03:56.210 ,7,0,0.,1.2,0.,1.2,5.,1.2,0.,1.2
1989-08-27T06:03:57.410 ,7,0,0.,1.2,0.,1.2,5.,1.2,0.,1.2
1989-08-27T06:03:58.610 ,7,0,0.,1.2,0.,1.2,6.,1.2,0.,1.2
1989-08-27T06:03:59.810 ,7,0,0.,1.2,0.,1.2,3.,1.2,0.,1.2
1989-08-27T06:04:01.010 ,7,0,0.,1.2,0.,1.2,6.,1.2,0.,1.2
1989-08-27T06:04:02.210 ,7,0,0.,1.2,0.,1.2,4.,1.2,0.,1.2
1989-08-27T06:04:03.410 ,7,0,0.,1.2,0.,1.2,6.,1.2,0.,1.2
1989-08-27T06:04:04.610 ,7,0,0.,1.2,0.,1.2,3.,1.2,0.,1.2
1989-08-27T06:04:05.810 ,7,0,0.,1.2,0.,1.2,5.,1.2,0.,1.2
1989-08-27T06:04:07.010 ,7,0,0.,1.2,0.,1.2,5.,1.2,0.,1.2
1989-08-27T06:04:08.210 ,7,0,0.,1.2,0.,1.2,2.,1.2,0.,1.2
1989-08-27T06:04:09.410 ,7,0,0.,1.2,0.,1.2,5.,1.2,0.,1.2
1989-08-27T06:04:10.610 ,7,0,0.,1.2,0.,1.2,2.,1.2,0.,1.2
1989-08-27T06:04:11.810 ,7,0,0.,1.2,0.,1.2,7.,1.2,0.,1.2
1989-08-27T06:04:13.010 ,7,0,0.,1.2,0.,1.2,11.,1.2,0.,1.2
1989-08-27T06:04:14.210 ,7,0,0.,1.2,0.,1.2,3.,1.2,0.,1.2
1989-08-27T06:04:15.410 ,7,0,0.,1.2,0.,1.2,7.,1.2,0.,1.2
1989-08-27T06:04:16.610 ,7,0,0.,1.2,0.,1.2,6.,1.2,0.,1.2
1989-08-27T06:04:17.810 ,7,0,0.,1.2,0.,1.2,4.,1.2,0.,1.2
1989-08-27T06:04:19.010 ,7,0,0.,1.2,0.,1.2,9.,1.2,0.,1.2
1989-08-27T06:04:20.210 ,7,0,0.,1.2,0.,1.2,2.,1.2,0.,1.2
1989-08-27T06:04:21.410 ,7,0,0.,1.2,0.,1.2,10.,1.2,0.,1.2
1989-08-27T06:04:22.610 ,7,0,0.,1.2,0.,1.2,0.,1.2,0.,1.2
1989-08-27T06:04:23.810 ,7,0,0.,1.2,0.,1.2,6.,1.2,0.,1.2
1989-08-27T06:04:25.010 ,7,0,0.,1.2,0.,1.2,2.,1.2,0.,1.2
1989-08-27T06:04:26.210 ,7,0,0.,1.2,0.,1.2,7.,1.2,0.,1.2
1989-08-27T06:04:27.410 ,7,0,0.,1.2,0.,1.2,7.,1.2,0.,1.2
1989-08-27T06:04:28.610 ,7,0,0.,1.2,0.,1.2,5.,1.2,0.,1.2
1989-08-27T06:04:29.810 ,7,0,0.,1.2,0.,1.2,2.,1.2,0.,1.2
1989-08-27T06:04:31.010 ,7,0,0.,1.2,0.,1.2,10.,1.2,0.,1.2
1989-08-27T06:04:32.210 ,7,0,0.,1.2,0.,1.2,2.,1.2,0.,1.2
1989-08-27T06:04:33.410 ,7,0,1.,1.2,0.,1.2,9.,1.2,0.,1.2
1989-08-27T06:04:34.610 ,7,0,0.,1.2,0.,1.2,7.,1.2,0.,1.2
1989-08-27T06:04:35.810 ,7,0,0.,1.2,0.,1.2,5.,1.2,0.,1.2
1989-08-27T06:04:37.010 ,7,0,0.,1.2,0.,1.2,6.,1.2,0.,1.2
1989-08-27T06:04:38.210 ,7,0,0.,1.2,0.,1.2,6.,1.2,0.,1.2
1989-08-27T06:04:39.410 ,7,0,0.,1.2,0.,1.2,6.,1.2,0.,1.2
1989-08-27T06:04:40.610 ,7,0,0.,1.2,0.,1.2,3.,1.2,0.,1.2
1989-08-27T06:04:41.810 ,7,0,0.,1.2,0.,1.2,9.,1.2,0.,1.2
1989-08-27T06:04:43.010 ,7,0,0.,1.2,0.,1.2,2.,1.2,0.,1.2
1989-08-27T06:04:44.210 ,7,0,0.,1.2,0.,1.2,9.,1.2,0.,1.2
1989-08-27T06:04:45.410 ,7,0,0.,1.2,0.,1.2,4.,1.2,0.,1.2
1989-08-27T06:04:46.610 ,7,0,0.,1.2,0.,1.2,7.,1.2,0.,1.2
1989-08-27T06:04:47.810 ,6,0,0.,1.2,0.,1.2,3.,1.2,0.,1.2
1989-08-27T06:04:49.010 ,6,0,0.,1.2,0.,1.2,6.,1.2,0.,1.2
1989-08-27T06:04:50.210 ,6,0,0.,1.2,0.,1.2,8.,1.2,0.,1.2
1989-08-27T06:04:51.410 ,6,0,0.,1.2,0.,1.2,3.,1.2,0.,1.2
1989-08-27T06:04:52.610 ,6,0,0.,1.2,0.,1.2,6.,1.2,0.,1.2
1989-08-27T06:04:53.810 ,6,0,0.,1.2,0.,1.2,2.,1.2,0.,1.2
1989-08-27T06:04:55.010 ,6,0,0.,1.2,0.,1.2,0.,1.2,0.,1.2
1989-08-27T06:04:56.210 ,6,0,0.,1.2,0.,1.2,0.,1.2,0.,1.2
1989-08-27T06:04:57.410 ,6,0,0.,1.2,0.,1.2,0.,1.2,0.,1.2
1989-08-27T06:04:58.610 ,6,0,0.,1.2,0.,1.2,0.,1.2,0.,1.2
1989-08-27T06:04:59.810 ,6,0,0.,1.2,0.,1.2,0.,1.2,0.,1.2
1989-08-27T06:05:01.010 ,6,0,0.,1.2,0.,1.2,0.,1.2,0.,1.2
1989-08-27T06:05:02.210 ,6,0,0.,1.2,0.,1.2,0.,1.2,0.,1.2
1989-08-27T06:05:03.410 ,6,0,0.,1.2,0.,1.2,0.,1.2,0.,1.2
1989-08-27T06:05:04.610 ,6,0,0.,1.2,0.,1.2,0.,1.2,0.,1.2
1989-08-27T06:05:05.810 ,6,0,0.,1.2,0.,1.2,0.,1.2,0.,1.2
1989-08-27T06:05:07.010 ,6,0,0.,1.2,0.,1.2,0.,1.2,0.,1.2
1989-08-27T06:05:08.210 ,6,0,0.,1.2,0.,1.2,0.,1.2,0.,1.2
1989-08-27T06:05:09.410 ,6,0,0.,1.2,0.,1.2,0.,1.2,0.,1.2
1989-08-27T06:05:10.610 ,6,0,0.,1.2,0.,1.2,0.,1.2,0.,1.2
1989-08-27T06:05:11.810 ,6,0,0.,1.2,0.,1.2,0.,1.2,0.,1.2
1989-08-27T06:05:13.010 ,6,0,0.,1.2,0.,1.2,0.,1.2,0.,1.2
1989-08-27T06:05:14.210 ,6,0,0.,1.2,0.,1.2,0.,1.2,0.,1.2
1989-08-27T06:05:15.410 ,6,0,0.,1.2,0.,1.2,0.,1.2,0.,1.2
1989-08-27T06:05:16.610 ,6,0,1.,1.2,0.,1.2,0.,1.2,0.,1.2
1989-08-27T06:05:17.810 ,6,0,0.,1.2,0.,1.2,0.,1.2,0.,1.2
1989-08-27T06:05:19.010 ,6,0,0.,1.2,0.,1.2,0.,1.2,0.,1.2
1989-08-27T06:05:20.210 ,6,0,0.,1.2,0.,1.2,0.,1.2,0.,1.2
1989-08-27T06:05:21.410 ,6,0,0.,1.2,0.,1.2,0.,1.2,0.,1.2
1989-08-27T06:05:22.610 ,6,0,0.,1.2,0.,1.2,0.,1.2,0.,1.2
1989-08-27T06:05:23.810 ,6,0,0.,1.2,0.,1.2,0.,1.2,0.,1.2
1989-08-27T06:05:25.010 ,6,0,0.,1.2,0.,1.2,0.,1.2,0.,1.2
1989-08-27T06:05:26.210 ,6,0,0.,1.2,0.,1.2,0.,1.2,0.,1.2
1989-08-27T06:05:27.410 ,6,0,0.,1.2,0.,1.2,0.,1.2,0.,1.2
1989-08-27T06:05:28.610 ,6,0,0.,1.2,0.,1.2,0.,1.2,0.,1.2
1989-08-27T06:05:29.810 ,6,0,0.,1.2,0.,1.2,0.,1.2,0.,1.2
1989-08-27T06:05:31.010 ,6,0,0.,1.2,0.,1.2,0.,1.2,0.,1.2
1989-08-27T06:05:32.210 ,6,0,0.,1.2,0.,1.2,0.,1.2,0.,1.2
1989-08-27T06:05:33.410 ,6,0,0.,1.2,0.,1.2,0.,1.2,0.,1.2
1989-08-27T06:05:34.610 ,6,0,0.,1.2,0.,1.2,0.,1.2,0.,1.2
1989-08-27T06:05:35.810 ,5,0,0.,1.2,0.,1.2,0.,1.2,0.,1.2
1989-08-27T06:05:37.010 ,5,0,0.,1.2,0.,1.2,0.,1.2,0.,1.2
1989-08-27T06:05:38.210 ,5,0,0.,1.2,0.,1.2,0.,1.2,0.,1.2
1989-08-27T06:05:39.410 ,5,0,0.,1.2,0.,1.2,0.,1.2,0.,1.2
1989-08-27T06:05:40.610 ,5,0,2.,1.2,0.,1.2,0.,1.2,0.,1.2
1989-08-27T06:05:41.810 ,5,0,0.,1.2,0.,1.2,0.,1.2,0.,1.2
1989-08-27T06:05:43.010 ,5,0,0.,1.2,0.,1.2,0.,1.2,0.,1.2
1989-08-27T06:05:44.210 ,5,0,1.,1.2,0.,1.2,0.,1.2,0.,1.2
1989-08-27T06:05:45.410 ,5,0,0.,1.2,0.,1.2,0.,1.2,0.,1.2
1989-08-27T06:05:46.610 ,5,0,0.,1.2,0.,1.2,0.,1.2,0.,1.2
1989-08-27T06:05:47.810 ,5,0,0.,1.2,0.,1.2,0.,1.2,0.,1.2
1989-08-27T06:05:49.010 ,5,0,0.,1.2,0.,1.2,0.,1.2,0.,1.2
1989-08-27T06:05:50.210 ,5,0,0.,1.2,0.,1.2,0.,1.2,0.,1.2
1989-08-27T06:05:51.410 ,5,0,0.,1.2,0.,1.2,0.,1.2,0.,1.2
1989-08-27T06:05:52.610 ,5,0,0.,1.2,0.,1.2,0.,1.2,0.,1.2
1989-08-27T06:05:53.810 ,5,0,0.,1.2,0.,1.2,0.,1.2,0.,1.2
1989-08-27T06:05:55.010 ,5,0,0.,1.2,0.,1.2,0.,1.2,0.,1.2
1989-08-27T06:05:56.210 ,5,0,0.,1.2,0.,1.2,0.,1.2,0.,1.2
1989-08-27T06:05:57.410 ,5,0,0.,1.2,0.,1.2,0.,1.2,0.,1.2
1989-08-27T06:05:58.610 ,5,0,0.,1.2,0.,1.2,1.,1.2,0.,1.2
1989-08-27T06:05:59.810 ,5,0,0.,1.2,0.,1.2,0.,1.2,0.,1.2
1989-08-27T06:06:01.010 ,5,0,0.,1.2,0.,1.2,0.,1.2,0.,1.2
1989-08-27T06:06:02.210 ,5,0,1.,1.2,0.,1.2,0.,1.2,0.,1.2
1989-08-27T06:06:03.410 ,5,0,0.,1.2,0.,1.2,0.,1.2,0.,1.2
1989-08-27T06:06:04.610 ,5,0,0.,1.2,0.,1.2,0.,1.2,0.,1.2
1989-08-27T06:06:05.810 ,5,0,0.,1.2,0.,1.2,0.,1.2,0.,1.2
1989-08-27T06:06:07.010 ,5,0,0.,1.2,0.,1.2,0.,1.2,0.,1.2
1989-08-27T06:06:08.210 ,5,0,0.,1.2,0.,1.2,0.,1.2,0.,1.2
1989-08-27T06:06:09.410 ,5,0,0.,1.2,0.,1.2,0.,1.2,0.,1.2
1989-08-27T06:06:10.610 ,5,0,0.,1.2,0.,1.2,0.,1.2,0.,1.2
1989-08-27T06:06:11.810 ,5,0,0.,1.2,0.,1.2,0.,1.2,0.,1.2
1989-08-27T06:06:13.010 ,5,0,0.,1.2,0.,1.2,0.,1.2,0.,1.2
1989-08-27T06:06:14.210 ,5,0,0.,1.2,0.,1.2,0.,1.2,0.,1.2
1989-08-27T06:06:15.410 ,5,0,0.,1.2,0.,1.2,0.,1.2,0.,1.2
1989-08-27T06:06:16.610 ,5,0,0.,1.2,0.,1.2,0.,1.2,0.,1.2
1989-08-27T06:06:17.810 ,5,0,0.,1.2,0.,1.2,0.,1.2,0.,1.2
1989-08-27T06:06:19.010 ,5,0,0.,1.2,0.,1.2,0.,1.2,0.,1.2
1989-08-27T06:06:20.210 ,5,0,0.,1.2,0.,1.2,0.,1.2,0.,1.2
1989-08-27T06:06:21.410 ,5,0,0.,1.2,0.,1.2,0.,1.2,0.,1.2
1989-08-27T06:06:22.610 ,5,0,0.,1.2,0.,1.2,0.,1.2,0.,1.2
1989-08-27T06:06:23.810 ,4,0,0.,1.2,0.,1.2,0.,1.2,0.,1.2
1989-08-27T06:06:25.010 ,4,0,0.,1.2,0.,1.2,0.,1.2,0.,1.2
1989-08-27T06:06:26.210 ,4,0,0.,1.2,0.,1.2,0.,1.2,0.,1.2
1989-08-27T06:06:27.410 ,4,0,0.,1.2,0.,1.2,0.,1.2,0.,1.2
1989-08-27T06:06:28.610 ,4,0,0.,1.2,0.,1.2,0.,1.2,0.,1.2
1989-08-27T06:06:29.810 ,4,0,0.,1.2,0.,1.2,0.,1.2,0.,1.2
1989-08-27T06:06:31.010 ,4,0,0.,1.2,0.,1.2,0.,1.2,0.,1.2
1989-08-27T06:06:32.210 ,4,0,0.,1.2,0.,1.2,0.,1.2,0.,1.2
1989-08-27T06:06:33.410 ,4,0,0.,1.2,0.,1.2,0.,1.2,0.,1.2
1989-08-27T06:06:34.610 ,4,0,0.,1.2,0.,1.2,0.,1.2,0.,1.2
1989-08-27T06:06:35.810 ,4,0,0.,1.2,0.,1.2,0.,1.2,0.,1.2
1989-08-27T06:06:37.010 ,4,0,0.,1.2,0.,1.2,0.,1.2,0.,1.2
1989-08-27T06:06:38.210 ,4,0,0.,1.2,0.,1.2,0.,1.2,0.,1.2
1989-08-27T06:06:39.410 ,4,0,0.,1.2,0.,1.2,0.,1.2,0.,1.2
1989-08-27T06:06:40.610 ,4,0,0.,1.2,0.,1.2,0.,1.2,0.,1.2
1989-08-27T06:06:41.810 ,4,0,0.,1.2,0.,1.2,0.,1.2,0.,1.2
1989-08-27T06:06:43.010 ,4,0,0.,1.2,0.,1.2,0.,1.2,0.,1.2
1989-08-27T06:06:44.210 ,4,0,0.,1.2,0.,1.2,0.,1.2,0.,1.2
1989-08-27T06:06:45.410 ,4,0,0.,1.2,0.,1.2,0.,1.2,0.,1.2
1989-08-27T06:06:46.610 ,4,0,0.,1.2,0.,1.2,0.,1.2,0.,1.2
1989-08-27T06:06:47.810 ,4,0,0.,1.2,0.,1.2,0.,1.2,0.,1.2
1989-08-27T06:06:49.010 ,4,0,0.,1.2,0.,1.2,0.,1.2,0.,1.2
1989-08-27T06:06:50.210 ,4,0,0.,1.2,0.,1.2,0.,1.2,0.,1.2
1989-08-27T06:06:51.410 ,4,0,0.,1.2,0.,1.2,0.,1.2,0.,1.2
1989-08-27T06:06:52.610 ,4,0,0.,1.2,0.,1.2,0.,1.2,0.,1.2
1989-08-27T06:06:53.810 ,4,0,0.,1.2,0.,1.2,0.,1.2,0.,1.2
1989-08-27T06:06:55.010 ,4,0,0.,1.2,0.,1.2,0.,1.2,0.,1.2
1989-08-27T06:06:56.210 ,4,0,0.,1.2,0.,1.2,0.,1.2,0.,1.2
1989-08-27T06:06:57.410 ,4,0,0.,1.2,0.,1.2,0.,1.2,0.,1.2
1989-08-27T06:06:58.610 ,4,0,0.,1.2,0.,1.2,0.,1.2,0.,1.2
1989-08-27T06:06:59.810 ,4,0,0.,1.2,0.,1.2,0.,1.2,0.,1.2
1989-08-27T06:07:01.010 ,4,0,1.,1.2,0.,1.2,0.,1.2,0.,1.2
1989-08-27T06:07:02.210 ,4,0,0.,1.2,0.,1.2,0.,1.2,0.,1.2
1989-08-27T06:07:03.410 ,4,0,0.,1.2,0.,1.2,0.,1.2,0.,1.2
1989-08-27T06:07:04.610 ,4,0,0.,1.2,0.,1.2,0.,1.2,0.,1.2
1989-08-27T06:07:05.810 ,4,0,0.,1.2,0.,1.2,0.,1.2,0.,1.2
1989-08-27T06:07:07.010 ,4,0,0.,1.2,0.,1.2,0.,1.2,0.,1.2
1989-08-27T06:07:08.210 ,4,0,0.,1.2,0.,1.2,0.,1.2,0.,1.2
1989-08-27T06:07:09.410 ,4,0,0.,1.2,0.,1.2,0.,1.2,0.,1.2
1989-08-27T06:07:10.610 ,4,0,0.,1.2,0.,1.2,0.,1.2,0.,1.2
1989-08-27T06:07:11.810 ,3,0,0.,1.2,0.,1.2,0.,1.2,0.,1.2
1989-08-27T06:07:13.010 ,3,0,1.,1.2,0.,1.2,0.,1.2,0.,1.2
1989-08-27T06:07:14.210 ,3,0,0.,1.2,0.,1.2,0.,1.2,0.,1.2
1989-08-27T06:07:15.410 ,3,0,0.,1.2,0.,1.2,0.,1.2,0.,1.2
1989-08-27T06:07:16.610 ,3,0,1.,1.2,0.,1.2,0.,1.2,0.,1.2
1989-08-27T06:07:17.810 ,3,0,1.,1.2,0.,1.2,0.,1.2,0.,1.2
1989-08-27T06:07:19.010 ,3,0,0.,1.2,0.,1.2,0.,1.2,0.,1.2
1989-08-27T06:07:20.210 ,3,0,0.,1.2,0.,1.2,0.,1.2,0.,1.2
1989-08-27T06:07:21.410 ,3,0,0.,1.2,0.,1.2,0.,1.2,0.,1.2
1989-08-27T06:07:22.610 ,3,0,0.,1.2,0.,1.2,0.,1.2,0.,1.2
1989-08-27T06:07:23.810 ,3,0,0.,1.2,0.,1.2,0.,1.2,0.,1.2
1989-08-27T06:07:25.010 ,3,0,0.,1.2,0.,1.2,0.,1.2,0.,1.2
1989-08-27T06:07:26.210 ,3,0,0.,1.2,0.,1.2,0.,1.2,0.,1.2
1989-08-27T06:07:27.410 ,3,0,0.,1.2,0.,1.2,0.,1.2,0.,1.2
1989-08-27T06:07:28.610 ,3,0,0.,1.2,0.,1.2,0.,1.2,0.,1.2
1989-08-27T06:07:29.810 ,3,0,0.,1.2,0.,1.2,0.,1.2,0.,1.2
1989-08-27T06:07:31.010 ,3,0,0.,1.2,0.,1.2,0.,1.2,0.,1.2
1989-08-27T06:07:32.210 ,3,0,0.,1.2,0.,1.2,0.,1.2,0.,1.2
1989-08-27T06:07:33.410 ,3,0,0.,1.2,0.,1.2,0.,1.2,0.,1.2
1989-08-27T06:07:34.610 ,3,0,0.,1.2,0.,1.2,0.,1.2,0.,1.2
1989-08-27T06:07:35.810 ,3,0,0.,1.2,0.,1.2,0.,1.2,0.,1.2
1989-08-27T06:07:37.010 ,3,0,0.,1.2,0.,1.2,0.,1.2,0.,1.2
1989-08-27T06:07:38.210 ,3,0,0.,1.2,0.,1.2,0.,1.2,0.,1.2
1989-08-27T06:07:39.410 ,3,0,1.,1.2,0.,1.2,0.,1.2,0.,1.2
1989-08-27T06:07:40.610 ,3,0,0.,1.2,0.,1.2,0.,1.2,0.,1.2
1989-08-27T06:07:41.810 ,3,0,0.,1.2,0.,1.2,0.,1.2,0.,1.2
1989-08-27T06:07:43.010 ,3,0,0.,1.2,0.,1.2,0.,1.2,0.,1.2
1989-08-27T06:07:44.210 ,3,0,0.,1.2,0.,1.2,0.,1.2,0.,1.2
1989-08-27T06:07:45.410 ,3,0,0.,1.2,0.,1.2,0.,1.2,0.,1.2
1989-08-27T06:07:46.610 ,3,0,0.,1.2,0.,1.2,0.,1.2,0.,1.2
1989-08-27T06:07:47.810 ,3,0,1.,1.2,0.,1.2,0.,1.2,0.,1.2
1989-08-27T06:07:49.010 ,3,0,0.,1.2,0.,1.2,0.,1.2,0.,1.2
1989-08-27T06:07:50.210 ,3,0,0.,1.2,0.,1.2,0.,1.2,0.,1.2
1989-08-27T06:07:51.410 ,3,0,0.,1.2,0.,1.2,0.,1.2,0.,1.2
1989-08-27T06:07:52.610 ,3,0,0.,1.2,0.,1.2,0.,1.2,0.,1.2
1989-08-27T06:07:53.810 ,3,0,0.,1.2,0.,1.2,0.,1.2,0.,1.2
1989-08-27T06:07:55.010 ,3,0,0.,1.2,0.,1.2,0.,1.2,0.,1.2
1989-08-27T06:07:56.210 ,3,0,0.,1.2,0.,1.2,0.,1.2,0.,1.2
1989-08-27T06:07:57.410 ,3,0,0.,1.2,0.,1.2,0.,1.2,0.,1.2
1989-08-27T06:07:58.610 ,3,0,0.,1.2,0.,1.2,0.,1.2,0.,1.2
1989-08-27T06:07:59.810 ,2,0,0.,1.2,0.,1.2,0.,1.2,0.,1.2
1989-08-27T06:08:01.010 ,2,0,0.,1.2,0.,1.2,0.,1.2,0.,1.2
1989-08-27T06:08:02.210 ,2,0,0.,1.2,0.,1.2,0.,1.2,0.,1.2
1989-08-27T06:08:03.410 ,2,0,0.,1.2,0.,1.2,0.,1.2,0.,1.2
1989-08-27T06:08:04.610 ,2,0,0.,1.2,0.,1.2,0.,1.2,0.,1.2
1989-08-27T06:08:05.810 ,2,0,0.,1.2,0.,1.2,0.,1.2,0.,1.2
1989-08-27T06:08:07.010 ,2,0,0.,1.2,0.,1.2,0.,1.2,0.,1.2
1989-08-27T06:08:08.210 ,2,0,0.,1.2,0.,1.2,0.,1.2,0.,1.2
1989-08-27T06:08:09.410 ,2,0,0.,1.2,0.,1.2,0.,1.2,0.,1.2
1989-08-27T06:08:10.610 ,2,0,0.,1.2,0.,1.2,1.,1.2,0.,1.2
1989-08-27T06:08:11.810 ,2,0,0.,1.2,0.,1.2,0.,1.2,0.,1.2
1989-08-27T06:08:13.010 ,2,0,0.,1.2,0.,1.2,0.,1.2,0.,1.2
1989-08-27T06:08:14.210 ,2,0,0.,1.2,0.,1.2,0.,1.2,0.,1.2
1989-08-27T06:08:15.410 ,2,0,0.,1.2,0.,1.2,0.,1.2,0.,1.2
1989-08-27T06:08:16.610 ,2,0,0.,1.2,0.,1.2,0.,1.2,0.,1.2
1989-08-27T06:08:17.810 ,2,0,0.,1.2,0.,1.2,0.,1.2,0.,1.2
1989-08-27T06:08:19.010 ,2,0,0.,1.2,0.,1.2,0.,1.2,0.,1.2
1989-08-27T06:08:20.210 ,2,0,0.,1.2,0.,1.2,0.,1.2,0.,1.2
1989-08-27T06:08:21.410 ,2,0,0.,1.2,0.,1.2,0.,1.2,0.,1.2
1989-08-27T06:08:22.610 ,2,0,0.,1.2,0.,1.2,0.,1.2,0.,1.2
1989-08-27T06:08:23.810 ,2,0,0.,1.2,0.,1.2,0.,1.2,0.,1.2
1989-08-27T06:08:25.010 ,2,0,0.,1.2,0.,1.2,0.,1.2,0.,1.2
1989-08-27T06:08:26.210 ,2,0,0.,1.2,0.,1.2,0.,1.2,0.,1.2
1989-08-27T06:08:27.410 ,2,0,0.,1.2,0.,1.2,0.,1.2,0.,1.2
1989-08-27T06:08:28.610 ,2,0,0.,1.2,0.,1.2,0.,1.2,0.,1.2
1989-08-27T06:08:29.810 ,2,0,0.,1.2,0.,1.2,0.,1.2,0.,1.2
1989-08-27T06:08:31.010 ,2,0,0.,1.2,0.,1.2,0.,1.2,0.,1.2
1989-08-27T06:08:32.210 ,2,0,0.,1.2,0.,1.2,0.,1.2,0.,1.2
1989-08-27T06:08:33.410 ,2,0,0.,1.2,0.,1.2,0.,1.2,0.,1.2
1989-08-27T06:08:34.610 ,2,0,0.,1.2,0.,1.2,0.,1.2,0.,1.2
1989-08-27T06:08:35.810 ,2,0,0.,1.2,0.,1.2,0.,1.2,0.,1.2
1989-08-27T06:08:37.010 ,2,0,0.,1.2,0.,1.2,0.,1.2,0.,1.2